755  
ASUS42 KTBW 310310  
RWRFL  
FLORIDA REGIONAL WEATHER ROUNDUP  
NATIONAL WEATHER SERVICE TAMPA BAY RUSKIN FL  
1100 PM EDT THU OCT 30 2014  
 
NOTE: "FAIR" INDICATES FEW OR NO CLOUDS BELOW 12,000 FEET WITH NO  
SIGNIFICANT WEATHER AND/OR S TO VISIBILITY
.  
 
 
FLZ001>010-012>015-112-114-115-310400-  
PANHANDLE FLORIDA  
 
CITY SKY/WX TMP DP RH WIND PRES REMARKS
 
PENSACOLA CLEAR 55 45 68 N5 30.01R  
PENSACOLA NAS CLEAR 47 43 86 CALM 30.01S  
MILTON NAS CLEAR 51 42 71 NW3 30.02R  
CRESTVIEW CLEAR 52 44 74 N3 30.02S  
VALPARAISO CLEAR 55 43 64 N5 30.00S  
MARY ESTHER CLEAR 55 42 60 N5 30.00S  
TRI COUNTY FAIR 50 48 93 CALM 30.00S  
PANAMA CITY FAIR 51 45 79 NW6 29.98S  
TYNDALL AFB CLEAR 60 46 59 N7 29.99R  
APALACHICOLA CLEAR 60 47 61 N9 29.97R  
 
STATION/POSITION SKY/WX TEMP WIND PRES WAVE SWELL
 
AIR SEA DIR/SP/G HT/PER HT/PER  
(F) (DEG/KT/KT) (MB) (FT/S) (FT/S)  
30.1N 87.6W 69 76 360/ 14/ 16 1016.0R 2/ 3  
29.2N 88.2W 71 78 350/ 16/ 17 1016.8R 3/ 6  
28.8N 86.0W 72 79 360/ 16/ 19 1014.7R 3/ 5  
PANAMA CITY BEAC 340/ 6/ 9 N/A  
CAPE SAN BLAS NOT AVBL  
TOWER C 68 360/ 19/ 21 1014.1R  
28.5N 84.5W 73 80 350/ 10/ 14 1013.9R 2/ 5  
 

 
FLZ011-016>038-118-127-128-134-139-239-310400-  
NORTH FLORIDA  
 
CITY SKY/WX TMP DP RH WIND PRES REMARKS
 
MARIANNA CLEAR 53 47 79 CALM 29.98S  
TALLAHASSEE CLEAR 58 43 57 N3 29.96R  
PERRY CLEAR 54 52 94 CALM 29.96R  
CROSS CITY N/A 66 51 58 N3 29.93S  
LAKE CITY MOCLDY 59 50 72 CALM 29.93S  
GAINESVILLE PTCLDY 65 62 90 N5 29.93R  
MAYPORT NAS CLOUDY 69 67 93 W3 29.91S  
JACKSONVILLE MOCLDY 65 56 72 NW5 29.91F  
JAX NAS MOCLDY 72 57 59 N9 29.92S  
JAX CRAIG MOCLDY 68 66 93 CALM 29.91F  
JAX CECIL CLOUDY 66 54 63 NW5 29.93R  
ST AUGUSTINE MOCLDY 65 64 97 CALM 29.92S  
 
STATION/POSITION SKY/WX TEMP WIND PRES WAVE SWELL
 
AIR SEA DIR/SP/G HT/PER HT/PER  
(F) (DEG/KT/KT) (MB) (FT/S) (FT/S)  
SHELL POINT 63 340/ 8/ 11 N/A  
KEATON BEACH 63 360/ 4/ 5 1014.2R  
CEDAR KEY 71 10/ 6/ 8 1013.5R  
FERNANDINA NOT AVBL  
30.7N 81.3W 76 N/A 2/ 3  
MAYPORT NOT AVBL  
31.4N 80.9W 70 74 50/ 10/ 12 1012.8F 2/ 7 2/ 7  
ST AUGUSTINE 65 260/ 2/ 3 1013.5F  
 

 
FLZ040-043>046-052-053-057-058-063-144-310400-  
INTERIOR CENTRAL FLORIDA  
 
CITY SKY/WX TMP DP RH WIND PRES REMARKS
 
OCALA PTCLDY 66 61 82 CALM 29.92S  
THE VILLAGES N/A 70 64 83 CALM 29.82S  
LEESBURG CLOUDY 71 65 81 NE7 29.92S  
SANFORD PTCLDY 72 67 84 E3 29.91R  
ORLANDO EXEC CLOUDY 76 67 73 CALM 29.91R  
ORLANDO INTL CLOUDY 74 67 78 CALM 29.91S  
WINTER HAVEN CLOUDY 73 66 78 NW6 29.92R  
LAKELAND CLOUDY 72 64 78 N3 29.92R  
BARTOW FAIR 73 64 73 CALM 29.92R  
OKEECHOBEE N/A 68 64 88 MISG 29.91R  
 

 
FLZ041-047-054-059-064-141-147-310400-  
EAST CENTRAL FLORIDA  
 
CITY SKY/WX TMP DP RH WIND PRES REMARKS
 
DAYTONA BEACH CLOUDY 70 67 90 W3 29.92R  
DELAND PTCLDY 70 64 83 N3 29.93S  
JFK SPACE CTR MOCLDY 70 67 89 NW2 29.90R  
CAPE CANAVERAL PTCLDY 69 65 88 N1 29.89R  
PATRICK AFB CLOUDY 76 66 70 S3 29.90R  
MELBOURNE CLOUDY 73 67 81 CALM 29.90R  
VERO BEACH CLOUDY 70 66 87 CALM 29.90R  
FT PIERCE CLEAR 66 64 93 CALM 29.89S  
STUART CLEAR 70 64 83 CALM 29.90F  
 
STATION/POSITION SKY/WX TEMP WIND PRES WAVE SWELL
 
AIR SEA DIR/SP/G HT/PER HT/PER  
(F) (DEG/KT/KT) (MB) (FT/S) (FT/S)  
28.5N 80.2W 78 80 120/ 2/ 4 1012.5R  
28.9N 78.5W 78 82 200/ 2/ 4 1012.2F 3/ 8 3/ 8  
TRIDENT PIER NOT AVBL  
28.4N 80.5W 78 N/A 1/ 7  
27.6N 80.2W 79 N/A 2/ 7  
 

 
FLZ050-056-061-142-242-148-248-149-249-151-251-155-255-  
160-260-310400-  
WEST CENTRAL FLORIDA  
 
CITY SKY/WX TMP DP RH WIND PRES REMARKS
 
CRYSTAL RIVER MOCLDY 68 63 83 CALM 29.92R  
INVERNESS FAIR 68 66 94 CALM 29.93R  
BROOKSVILLE CLOUDY 71 68 90 NW5 29.93R  
ZEPHYRHILLS CLOUDY 70 66 88 CALM 29.92S  
CLEARWATER PTCLDY 74 67 78 N8 29.90F  
TAMPA INTL PTCLDY 72 66 81 N6 29.91S  
TAMPA EXEC CLOUDY 72 66 83 CALM 29.92S  
PLANT CITY CLOUDY 73 68 83 N3 29.93S  
MACDILL AFB MOCLDY 72 69 91 NW5 29.91S  
ST PETERSBURG PTCLDY 75 67 76 NE5 29.89S  
SARASOTA CLOUDY 73 69 87 CALM 29.89S  
VENICE N/A 73 68 83 CALM 29.91S  
 
STATION/POSITION SKY/WX TEMP WIND PRES WAVE SWELL
 
AIR SEA DIR/SP/G HT/PER HT/PER  
(F) (DEG/KT/KT) (MB) (FT/S) (FT/S)  
CEDAR KEY 71 10/ 6/ 8 1013.5R  
28.5N 84.5W 73 80 350/ 10/ 14 1013.9R 2/ 5  
27.3N 84.3W 80 N/A 2/ 3  
CLEARWATER BEACH 350/ 7/ 9 N/A  
MIDDLE TAMPA BAY NOT AVBL  
VENICE 77 79 280/ 4/ 5 1012.3R  
 

 
FLZ066-069-070-075>078-162-262-165-265-310400-  
SOUTHWEST FLORIDA AND KEYS  
 
CITY SKY/WX TMP DP RH WIND PRES REMARKS
 
PUNTA GORDA CLOUDY 72 68 87 CALM 29.92R  
FT MYERS MOCLDY 75 68 78 W3 29.90R  
SOUTHWEST INTL CLOUDY 73 67 81 CALM 29.91R  
NAPLES CLOUDY 77 68 73 W5 29.90R  
MARCO ISLAND PTCLDY 75 70 83 CALM 29.90S  
MARATHON CLEAR 73 67 81 CALM 29.92R  
KEY WEST NAS CLEAR 77 67 71 W5 29.92R  
KEY WEST INTL CLEAR 77 70 79 W6 29.92R  
 
STATION/POSITION SKY/WX TEMP WIND PRES WAVE SWELL
 
AIR SEA DIR/SP/G HT/PER HT/PER  
(F) (DEG/KT/KT) (MB) (FT/S) (FT/S)  
VENICE 77 79 280/ 4/ 5 1012.3R  
NAPLES NOT AVBL  
26.0N 85.6W 78 80 350/ 14/ 16 1013.6R 2/ 4  
DRY TORTUGAS 78 CALM / 1 1012.9R  
NW FL BAY 79 290/ 4/ 5 1012.6R  
SAND KEY 79 90/ 3/ 6 1013.2R  
SOMBRERO KEY 79 240/ 2/ 3 1013.9R  
LONG KEY 78 80 200/ 2/ 2 1013.5R  
MOLASSES REEF 78 82 270/ 4/ 5 1013.0R  
 

 
FLZ067-068-071>074-168-172>174-310400-  
SOUTHEAST FLORIDA  
 
CITY SKY/WX TMP DP RH WIND PRES REMARKS
 
W PALM BEACH PTCLDY 76 67 73 CALM 29.88S  
FT LAUDER-EXEC CLEAR 75 65 70 CALM 29.89S  
FT LAUDERDALE PTCLDY 78 67 68 S3 29.89R  
POMPANO BEACH CLEAR 79 66 64 SE3 29.90R  
PEMBROKE PINES MOCLDY 75 66 73 SW5 29.91R  
OPA LOCKA MOCLDY 76 66 71 SW5 29.91R  
MIAMI MOCLDY 77 66 68 SW6 29.91R  
WEST KENDALL MOCLDY 77 67 71 SW6 29.91R  
HOMESTEAD CLEAR 74 67 78 W6 29.91R  
 
STATION/POSITION SKY/WX TEMP WIND PRES WAVE SWELL
 
AIR SEA DIR/SP/G HT/PER HT/PER  
(F) (DEG/KT/KT) (MB) (FT/S) (FT/S)  
PORT EVERGLADES 79 130/ 3/ 4 1012.3  
LAKE WORTH 90/ 5/ 7 N/A  
FOWEY ROCKS 78 79 240/ 8/ 8 1012.9R  
SETTLEMENT POINT 78 360/ 7/ 8 1012.7S  
 

 
 
CLICK HERE TO GO TO PREVIOUS BULLETINS.

The Nexlab FL Page Main Text Page